Location: Bergnershof
(48.9468°N, 10.9431°E)
Time: 10:48:48
(UTC+00:00)

ARGOS - Pass Details

Date: 03 March 2021
Orbit: 819 x 835 km, 98.4° (Epoch: 12 April)

Event Time Altitude Azimuth Distance (km) Brightness Sun altitude
Rises 17:49:33 0° 156° (SSE) 3,369 6.1 -8.4°
Reaches altitude 10° 17:51:54 10° 154° (SSE) 2,440 5.3 -8.8°
Maximum altitude 17:57:16 70° 72° (ENE) 892 3.2 -9.7°
Drops below altitude 10° 18:02:42 10° 350° (N) 2,460 5.8 -10.6°
Sets 18:05:04 0° 348° (NNW) 3,398 6.5 -11.0°
